Flag for China Weather past 2 weeks in Shenzhen, Guangdong, China

Now
54 °F

Clear.


Feels Like: 54 °F
Forecast: 49 / 66 °F
Wind: 1 mph from Northeast

Location: Shenzhen Airport

Current Time: Dec 22, 2014 at 8:55:50 PM

Latest Report: Dec 22, 2014 at 8:00 PM


Visibility: 4 mi

Pressure: 30.21 "Hg

Humidity: 47%

Dew point: 34 °F

Location of ShenzhenLocation

Historic Weather in Shenzhen — Graph

°F

Shenzhen temperature yesterday

Maximum temperature yesterday: 70 °F (at 2:00 PM)
Minimum temperature yesterday: 55 °F (at 6:00 AM)
Average temperature yesterday: 61 °F

Past Weeks' High & Low Weather Summary

 TemperatureHumidityPressure
High75 °F (Dec 9, 1:00 PM)94% (Dec 8, 5:00 AM)30.45 "Hg (Dec 8, 5:00 AM)
Low48 °F (Dec 13, 7:00 AM)16% (Dec 17, 2:00 PM)30.04 "Hg (Dec 10, 2:00 PM)
Average60 °F52%30.22 "Hg
* Reported Dec 7 7:00 PM — Dec 22 7:00 PM, Shenzhen, Weather by CustomWeather, © 2014

Note: Actual official high and low records may vary slightly from our data, if they occured in-between our weather recording intervals... More about our weather records

Advertising

Shenzhen weather history for previous 24 hours

 ConditionsComfort  
Time TempWeatherWind HumidityBarometerVisibility
7:00 PM
Dec 22
55 °FClear.3 mph44%30.18 "Hg4 mi
6:00 PM57 °FClear.6 mph36%30.18 "Hg10 mi
5:00 PM59 °FSunny.8 mph34%30.18 "Hg10 mi
4:00 PM59 °FSunny.8 mph31%30.18 "Hg10 mi
3:00 PM61 °FSunny.10 mph29%30.18 "Hg10 mi
2:00 PM61 °FPassing clouds.6 mph20%30.21 "HgN/A
1:00 PM61 °FPassing clouds.8 mph19%30.24 "HgN/A
12:00 PM59 °FSunny.13 mph20%30.30 "Hg10 mi
11:00 AM57 °FSunny.13 mph20%30.33 "Hg10 mi
10:00 AM55 °FSunny.15 mph24%30.33 "Hg10 mi
9:00 AM52 °FSunny.15 mph30%30.33 "Hg10 mi
8:00 AM50 °FSunny.13 mph35%30.33 "Hg10 mi
7:00 AM50 °FPassing clouds.13 mph35%30.30 "HgN/A
6:00 AM50 °FClear.10 mph37%30.27 "Hg10 mi
5:00 AM50 °FClear.13 mph40%30.27 "Hg10 mi
4:00 AM50 °FClear.13 mph43%30.27 "Hg10 mi
3:00 AM52 °FClear.10 mph41%30.27 "Hg10 mi
2:00 AM54 °FClear.13 mph38%30.30 "Hg10 mi
1:00 AM54 °FClear.10 mph41%30.30 "Hg10 mi
12:00 AM55 °FClear.13 mph38%30.30 "Hg10 mi
11:00 PM
Dec 21
55 °FClear.13 mph41%30.30 "Hg10 mi
10:00 PM57 °FPassing clouds.15 mph41%30.30 "HgN/A
9:00 PM59 °FClear.15 mph42%30.27 "Hg10 mi
8:00 PM61 °FClear.10 mph42%30.24 "Hg10 mi
Weather by CustomWeather, © 2014

See weather overviewHow to use our weather pages